CICERO 10

Last updated on Sat Jul 20 2024 00:03:37 GMT+0000 (Coordinated Universal Time)

1 43690U 18088A 24201.58175560 .05025906 -14608-5 10132-2 0 9994 2 43690 84.9799 155.1380 0012490 191.4477 168.6541 16.31213650317383

Satellite not in orbit